| time (UTC) | temp F | wind direction | speed MPH | gust MPH | rain 1hr in | rain 24hr in | rain mn in | humidity % | barometer mb |
| 20260508004011 | 46 | 0 | 0.0 | 2.0 | 0.00 | 0.18 | 0.06 | 64 | 1015.9 |
| 20260508003509 | 45 | 0 | 0.0 | 2.0 | 0.00 | 0.18 | 0.06 | 65 | 1016.0 |
| 20260508003036 | 46 | 136 | 1.0 | 2.0 | 0.00 | 0.18 | 0.06 | 63 | 1016.1 |
| 20260508002511 | 45 | 0 | 0.0 | 2.0 | 0.00 | 0.18 | 0.06 | 63 | 1016.0 |
| 20260508002010 | 45 | 0 | 0.0 | 6.0 | 0.00 | 0.18 | 0.06 | 63 | 1016.1 |
| 20260508001533 | 45 | 0 | 0.0 | 6.0 | 0.00 | 0.18 | 0.06 | 64 | 1016.2 |
| 20260508001010 | 45 | 171 | 2.0 | 6.0 | 0.00 | 0.18 | 0.06 | 64 | 1016.3 |
| 20260508000513 | 45 | 166 | 1.0 | 3.0 | 0.00 | 0.18 | 0.06 | 64 | 1016.3 |
| 20260508000027 | 45 | 120 | 0.0 | 2.0 | 0.00 | 0.18 | 0.06 | 66 | 1016.3 |
| 20260507235510 | 45 | 134 | 0.0 | 2.0 | 0.00 | 0.18 | 0.06 | 67 | 1016.4 |
| 20260507235010 | 45 | 45 | 0.0 | 2.0 | 0.00 | 0.18 | 0.06 | 68 | 1016.4 |
| 20260507234528 | 44 | 80 | 0.0 | 1.0 | 0.00 | 0.18 | 0.06 | 69 | 1016.4 |
| 20260507234007 | 44 | 30 | 0.0 | 1.0 | 0.00 | 0.18 | 0.06 | 70 | 1016.3 |
| 20260507233509 | 44 | 31 | 0.0 | 2.0 | 0.00 | 0.18 | 0.06 | 72 | 1016.4 |
| 20260507233028 | 44 | 0 | 0.0 | 2.0 | 0.00 | 0.18 | 0.06 | 72 | 1016.5 |
| 20260507232513 | 43 | 287 | 0.0 | 1.0 | 0.00 | 0.18 | 0.06 | 72 | 1016.5 |
| 20260507232012 | 43 | 343 | 0.0 | 1.0 | 0.00 | 0.18 | 0.06 | 70 | 1016.6 |
| 20260507231530 | 43 | 0 | 0.0 | 1.0 | 0.00 | 0.18 | 0.06 | 71 | 1016.6 |
| 20260507231010 | 43 | 0 | 0.0 | 1.0 | 0.00 | 0.18 | 0.06 | 72 | 1016.6 |
| 20260507230510 | 43 | 285 | 0.0 | 1.0 | 0.00 | 0.18 | 0.06 | 73 | 1016.7 |
| 20260507230028 | 43 | 0 | 0.0 | 1.0 | 0.00 | 0.18 | 0.06 | 70 | 1016.8 |
| 20260507225513 | 43 | 278 | 0.0 | 2.0 | 0.00 | 0.21 | 0.06 | 72 | 1016.9 |
| 20260507225011 | 43 | 0 | 0.0 | 3.0 | 0.00 | 0.21 | 0.06 | 71 | 1017.0 |
| 20260507224530 | 43 | 275 | 1.0 | 3.0 | 0.00 | 0.21 | 0.06 | 72 | 1017.1 |
| 20260507224010 | 43 | 221 | 1.0 | 3.0 | 0.00 | 0.21 | 0.06 | 71 | 1017.1 |
| 20260507223509 | 43 | 271 | 1.0 | 4.0 | 0.00 | 0.21 | 0.06 | 72 | 1017.2 |
| 20260507223030 | 44 | 274 | 2.0 | 4.0 | 0.00 | 0.21 | 0.06 | 69 | 1017.1 |
| 20260507222513 | 44 | 156 | 0.0 | 2.0 | 0.00 | 0.21 | 0.06 | 67 | 1017.1 |
| 20260507222009 | 44 | 131 | 0.0 | 3.0 | 0.00 | 0.21 | 0.06 | 68 | 1017.1 |
| 20260507221527 | 44 | 143 | 1.0 | 3.0 | 0.00 | 0.21 | 0.06 | 68 | 1017.1 |
| 20260507221010 | 44 | 0 | 1.0 | 3.0 | 0.00 | 0.21 | 0.06 | 68 | 1017.0 |
| 20260507220510 | 44 | 245 | 1.0 | 4.0 | 0.00 | 0.21 | 0.06 | 66 | 1017.0 |
| 20260507220028 | 44 | 134 | 0.0 | 4.0 | 0.00 | 0.21 | 0.06 | 68 | 1017.1 |
| 20260507215512 | 44 | 205 | 1.0 | 3.0 | 0.00 | 0.21 | 0.06 | 72 | 1017.1 |
| 20260507215010 | 43 | 225 | 1.0 | 3.0 | 0.00 | 0.21 | 0.06 | 69 | 1017.1 |
| 20260507214530 | 43 | 76 | 2.0 | 4.0 | 0.00 | 0.21 | 0.06 | 67 | 1017.2 |
| 20260507214008 | 44 | 128 | 0.0 | 5.0 | 0.00 | 0.21 | 0.06 | 67 | 1017.2 |
| 20260507213508 | 44 | 166 | 1.0 | 5.0 | 0.00 | 0.21 | 0.06 | 65 | 1017.2 |
| 20260507213031 | 45 | 139 | 1.0 | 3.0 | 0.00 | 0.21 | 0.06 | 65 | 1017.2 |
| 20260507212509 | 45 | 61 | 0.0 | 1.0 | 0.00 | 0.21 | 0.06 | 66 | 1017.2 |
| 20260507212013 | 45 | 62 | 0.0 | 1.0 | 0.00 | 0.21 | 0.06 | 65 | 1017.1 |
| 20260507211528 | 45 | 41 | 0.0 | 1.0 | 0.00 | 0.21 | 0.06 | 68 | 1017.1 |
| 20260507211010 | 45 | 40 | 0.0 | 2.0 | 0.00 | 0.21 | 0.06 | 66 | 1017.1 |
| 20260507210508 | 44 | 15 | 0.0 | 2.0 | 0.00 | 0.21 | 0.06 | 67 | 1017.1 |
| 20260507210028 | 44 | 57 | 0.0 | 2.0 | 0.00 | 0.21 | 0.06 | 68 | 1017.1 |
| 20260507205509 | 45 | 0 | 0.0 | 2.0 | 0.00 | 0.21 | 0.06 | 70 | 1017.2 |
| 20260507205012 | 45 | 78 | 0.0 | 2.0 | 0.00 | 0.21 | 0.06 | 69 | 1017.2 |
| 20260507204530 | 44 | 112 | 1.0 | 3.0 | 0.00 | 0.21 | 0.06 | 68 | 1017.2 |
| 20260507204009 | 45 | 46 | 1.0 | 3.0 | 0.00 | 0.21 | 0.06 | 69 | 1017.3 |
| 20260507203511 | 44 | 0 | 0.0 | 3.0 | 0.00 | 0.21 | 0.06 | 71 | 1017.3 |
| 20260507203030 | 44 | 98 | 1.0 | 3.0 | 0.00 | 0.21 | 0.06 | 72 | 1017.4 |
| 20260507202510 | 44 | 47 | 1.0 | 2.0 | 0.00 | 0.21 | 0.06 | 73 | 1017.4 |
| 20260507202010 | 43 | 104 | 1.0 | 2.0 | 0.00 | 0.21 | 0.06 | 72 | 1017.4 |
| 20260507201529 | 43 | 88 | 0.0 | 1.0 | 0.00 | 0.21 | 0.06 | 76 | 1017.4 |
| 20260507201014 | 43 | 121 | 0.0 | 1.0 | 0.00 | 0.21 | 0.06 | 75 | 1017.3 |
| 20260507200509 | 42 | 124 | 0.0 | 1.0 | 0.00 | 0.21 | 0.06 | 73 | 1017.4 |
| 20260507200036 | 42 | 136 | 0.0 | 2.0 | 0.00 | 0.21 | 0.06 | 73 | 1017.5 |
| 20260507195508 | 42 | 0 | 0.0 | 2.0 | 0.00 | 0.21 | 0.06 | 75 | 1017.6 |
| 20260507195008 | 42 | 340 | 0.0 | 2.0 | 0.00 | 0.21 | 0.06 | 76 | 1017.5 |
| 20260507194528 | 42 | 44 | 0.0 | 2.0 | 0.00 | 0.21 | 0.06 | 75 | 1017.5 |
| 20260507194012 | 43 | 160 | 0.0 | 2.0 | 0.00 | 0.21 | 0.06 | 75 | 1017.7 |
| 20260507193509 | 42 | 157 | 0.0 | 2.0 | 0.00 | 0.21 | 0.06 | 76 | 1017.6 |
| 20260507193032 | 42 | 164 | 0.0 | 2.0 | 0.00 | 0.21 | 0.06 | 77 | 1017.6 |
| 20260507192510 | 42 | 164 | 0.0 | 2.0 | 0.00 | 0.21 | 0.06 | 75 | 1017.6 |
| 20260507192008 | 42 | 165 | 1.0 | 2.0 | 0.00 | 0.21 | 0.06 | 76 | 1017.6 |
| 20260507191530 | 42 | 117 | 0.0 | 3.0 | 0.00 | 0.21 | 0.06 | 77 | 1017.7 |
| 20260507191010 | 43 | 117 | 0.0 | 4.0 | 0.00 | 0.21 | 0.06 | 76 | 1017.7 |
| 20260507190509 | 42 | 134 | 1.0 | 4.0 | 0.00 | 0.21 | 0.06 | 77 | 1017.6 |
| 20260507190037 | 42 | 131 | 1.0 | 4.0 | 0.00 | 0.21 | 0.06 | 81 | 1017.7 |
| 20260507185508 | 42 | 0 | 0.0 | 2.0 | 0.00 | 0.22 | 0.06 | 80 | 1017.7 |
| 20260507185010 | 41 | 0 | 0.0 | 2.0 | 0.00 | 0.22 | 0.06 | 81 | 1017.7 |
| 20260507184537 | 41 | 123 | 0.0 | 2.0 | 0.00 | 0.22 | 0.06 | 80 | 1017.7 |
| 20260507184009 | 41 | 0 | 0.0 | 1.0 | 0.00 | 0.22 | 0.06 | 83 | 1017.7 |
| 20260507183509 | 41 | 0 | 0.0 | 1.0 | 0.00 | 0.22 | 0.06 | 85 | 1017.6 |
| 20260507183029 | 41 | 0 | 0.0 | 1.0 | 0.00 | 0.22 | 0.06 | 85 | 1017.5 |
| 20260507182510 | 40 | 0 | 0.0 | 1.0 | 0.00 | 0.22 | 0.06 | 85 | 1017.7 |
| 20260507182011 | 40 | 126 | 0.0 | 1.0 | 0.00 | 0.22 | 0.06 | 88 | 1017.6 |
| 20260507181528 | 40 | 0 | 0.0 | 1.0 | 0.00 | 0.22 | 0.06 | 87 | 1017.7 |
| 20260507181010 | 40 | 0 | 0.0 | 1.0 | 0.00 | 0.22 | 0.06 | 90 | 1017.7 |
| 20260507180510 | 40 | 0 | 0.0 | 1.0 | 0.00 | 0.22 | 0.06 | 92 | 1017.6 |
| 20260507180032 | 40 | 0 | 0.0 | 1.0 | 0.00 | 0.22 | 0.06 | 93 | 1017.7 |
| 20260507175511 | 39 | 0 | 0.0 | 1.0 | 0.00 | 0.22 | 0.06 | 94 | 1017.7 |
| 20260507175012 | 39 | 0 | 0.0 | 1.0 | 0.00 | 0.22 | 0.06 | 94 | 1017.6 |
| 20260507174536 | 39 | 0 | 0.0 | 1.0 | 0.00 | 0.22 | 0.06 | 95 | 1017.7 |
| 20260507174010 | 39 | 0 | 0.0 | 1.0 | 0.00 | 0.22 | 0.06 | 95 | 1017.6 |
| 20260507173511 | 38 | 0 | 0.0 | 1.0 | 0.00 | 0.22 | 0.06 | 95 | 1017.7 |
| 20260507173033 | 38 | 0 | 0.0 | 1.0 | 0.00 | 0.22 | 0.06 | 95 | 1017.7 |
| 20260507172509 | 38 | 0 | 0.0 | 1.0 | 0.00 | 0.22 | 0.06 | 95 | 1017.8 |
| 20260507172010 | 38 | 0 | 0.0 | 1.0 | 0.00 | 0.22 | 0.06 | 95 | 1017.7 |
| 20260507171532 | 38 | 103 | 0.0 | 1.0 | 0.00 | 0.22 | 0.06 | 95 | 1017.7 |
| 20260507171011 | 38 | 0 | 0.0 | 1.0 | 0.00 | 0.22 | 0.06 | 96 | 1017.7 |
| 20260507170513 | 37 | 0 | 0.0 | 1.0 | 0.00 | 0.22 | 0.06 | 96 | 1017.8 |
| 20260507170028 | 37 | 119 | 0.0 | 1.0 | 0.00 | 0.22 | 0.06 | 96 | 1017.7 |
| 20260507165509 | 37 | 0 | 0.0 | 1.0 | 0.00 | 0.22 | 0.06 | 96 | 1017.8 |
| 20260507165008 | 37 | 128 | 0.0 | 0.0 | 0.00 | 0.22 | 0.06 | 96 | 1017.9 |
| 20260507164530 | 37 | 0 | 0.0 | 0.0 | 0.00 | 0.22 | 0.06 | 96 | 1017.8 |
| 20260507164014 | 37 | 0 | 0.0 | 0.0 | 0.00 | 0.22 | 0.06 | 96 | 1017.8 |
| 20260507163510 | 36 | 0 | 0.0 | 1.0 | 0.00 | 0.22 | 0.06 | 96 | 1017.9 |
| 20260507163030 | 36 | 0 | 0.0 | 1.0 | 0.00 | 0.22 | 0.06 | 96 | 1017.9 |
| 20260507162513 | 36 | 0 | 0.0 | 1.0 | 0.00 | 0.22 | 0.06 | 96 | 1017.9 |
| 20260507162009 | 36 | 0 | 0.0 | 1.0 | 0.00 | 0.22 | 0.06 | 96 | 1017.9 |
| 20260507161527 | 36 | 0 | 0.0 | 1.0 | 0.00 | 0.22 | 0.06 | 96 | 1017.9 |
| 20260507161010 | 36 | 0 | 0.0 | 1.0 | 0.00 | 0.22 | 0.06 | 96 | 1017.9 |
| 20260507160508 | 36 | 0 | 0.0 | 1.0 | 0.00 | 0.22 | 0.06 | 96 | 1017.8 |
| 20260507160028 | 36 | 128 | 0.0 | 1.0 | 0.00 | 0.22 | 0.06 | 96 | 1017.9 |
| 20260507155510 | 36 | 0 | 0.0 | 1.0 | 0.00 | 0.22 | 0.06 | 95 | 1018.0 |
| 20260507155010 | 36 | 39 | 0.0 | 1.0 | 0.00 | 0.22 | 0.06 | 95 | 1017.9 |
| 20260507154533 | 36 | 0 | 0.0 | 1.0 | 0.00 | 0.22 | 0.06 | 95 | 1018.0 |
| 20260507154010 | 36 | 0 | 0.0 | 1.0 | 0.00 | 0.22 | 0.06 | 96 | 1018.0 |
| 20260507153509 | 36 | 40 | 0.0 | 1.0 | 0.00 | 0.22 | 0.06 | 96 | 1018.0 |
| 20260507153030 | 36 | 0 | 0.0 | 1.0 | 0.00 | 0.22 | 0.06 | 96 | 1017.9 |
| 20260507152513 | 36 | 0 | 0.0 | 1.0 | 0.00 | 0.22 | 0.06 | 96 | 1018.0 |
| 20260507152010 | 36 | 0 | 0.0 | 1.0 | 0.00 | 0.22 | 0.06 | 96 | 1018.0 |
| 20260507151530 | 36 | 0 | 0.0 | 0.0 | 0.00 | 0.22 | 0.06 | 96 | 1018.0 |
| 20260507151009 | 36 | 0 | 0.0 | 1.0 | 0.00 | 0.22 | 0.06 | 95 | 1018.0 |
| 20260507150510 | 36 | 0 | 0.0 | 1.0 | 0.00 | 0.22 | 0.06 | 96 | 1018.0 |
| 20260507150029 | 36 | 0 | 0.0 | 0.0 | 0.00 | 0.22 | 0.06 | 95 | 1017.8 |
| 20260507145510 | 36 | 0 | 0.0 | 0.0 | 0.00 | 0.22 | 0.06 | 95 | 1017.8 |
| 20260507145011 | 35 | 0 | 0.0 | 0.0 | 0.00 | 0.22 | 0.06 | 95 | 1017.8 |
| 20260507144529 | 35 | 0 | 0.0 | 1.0 | 0.00 | 0.22 | 0.06 | 95 | 1017.8 |
| 20260507144011 | 35 | 0 | 0.0 | 1.0 | 0.00 | 0.22 | 0.06 | 95 | 1018.0 |
| 20260507143513 | 36 | 290 | 0.0 | 1.0 | 0.00 | 0.22 | 0.06 | 95 | 1017.8 |
| 20260507143027 | 35 | 290 | 0.0 | 1.0 | 0.00 | 0.22 | 0.06 | 95 | 1017.8 |
| 20260507142509 | 35 | 0 | 0.0 | 1.0 | 0.00 | 0.22 | 0.06 | 95 | 1017.8 |
| 20260507142010 | 35 | 0 | 0.0 | 0.0 | 0.00 | 0.22 | 0.06 | 95 | 1017.8 |
| 20260507141530 | 35 | 0 | 0.0 | 0.0 | 0.00 | 0.22 | 0.06 | 95 | 1017.8 |
| 20260507141012 | 35 | 0 | 0.0 | 0.0 | 0.00 | 0.22 | 0.06 | 95 | 1017.7 |
| 20260507140511 | 35 | 0 | 0.0 | 1.0 | 0.00 | 0.22 | 0.06 | 95 | 1017.7 |
| 20260507140028 | 36 | 0 | 0.0 | 1.0 | 0.00 | 0.22 | 0.06 | 95 | 1017.7 |
| 20260507135512 | 36 | 0 | 0.0 | 1.0 | 0.00 | 0.22 | 0.06 | 95 | 1017.7 |
| 20260507135010 | 36 | 0 | 0.0 | 1.0 | 0.00 | 0.22 | 0.06 | 95 | 1017.7 |
| 20260507134530 | 36 | 0 | 0.0 | 1.0 | 0.00 | 0.22 | 0.06 | 95 | 1017.7 |
| 20260507134014 | 36 | 0 | 0.0 | 1.0 | 0.00 | 0.22 | 0.06 | 95 | 1017.7 |
| 20260507133510 | 36 | 0 | 0.0 | 1.0 | 0.00 | 0.22 | 0.06 | 95 | 1017.6 |
| 20260507133030 | 36 | 0 | 0.0 | 0.0 | 0.00 | 0.22 | 0.06 | 95 | 1017.6 |
| 20260507132513 | 36 | 0 | 0.0 | 0.0 | 0.00 | 0.22 | 0.06 | 95 | 1017.6 |
| 20260507132010 | 36 | 0 | 0.0 | 1.0 | 0.00 | 0.22 | 0.06 | 95 | 1017.6 |
| 20260507131527 | 36 | 0 | 0.0 | 1.0 | 0.00 | 0.22 | 0.06 | 95 | 1017.5 |
| 20260507131012 | 36 | 0 | 0.0 | 1.0 | 0.00 | 0.22 | 0.06 | 95 | 1017.5 |
| 20260507130510 | 36 | 0 | 0.0 | 0.0 | 0.00 | 0.22 | 0.06 | 95 | 1017.5 |
| 20260507130029 | 36 | 0 | 0.0 | 0.0 | 0.00 | 0.22 | 0.06 | 95 | 1017.5 |
| 20260507125514 | 36 | 0 | 0.0 | 0.0 | 0.00 | 0.22 | 0.06 | 95 | 1017.5 |
| 20260507125009 | 36 | 0 | 0.0 | 0.0 | 0.00 | 0.22 | 0.06 | 95 | 1017.4 |
| 20260507124528 | 36 | 0 | 0.0 | 0.0 | 0.00 | 0.22 | 0.06 | 95 | 1017.4 |
| 20260507124011 | 36 | 0 | 0.0 | 0.0 | 0.00 | 0.22 | 0.06 | 95 | 1017.4 |
| 20260507123510 | 36 | 0 | 0.0 | 0.0 | 0.00 | 0.22 | 0.06 | 95 | 1017.4 |
| 20260507123033 | 36 | 0 | 0.0 | 0.0 | 0.00 | 0.22 | 0.06 | 95 | 1017.4 |
| 20260507122510 | 36 | 0 | 0.0 | 0.0 | 0.00 | 0.22 | 0.06 | 95 | 1017.4 |
| 20260507122009 | 36 | 0 | 0.0 | 0.0 | 0.00 | 0.22 | 0.06 | 95 | 1017.5 |
| 20260507121537 | 36 | 0 | 0.0 | 0.0 | 0.01 | 0.22 | 0.06 | 95 | 1017.4 |
| 20260507121012 | 36 | 0 | 0.0 | 0.0 | 0.01 | 0.22 | 0.06 | 95 | 1017.4 |
| 20260507120509 | 36 | 0 | 0.0 | 0.0 | 0.01 | 0.22 | 0.06 | 95 | 1017.5 |
| 20260507120030 | 36 | 0 | 0.0 | 0.0 | 0.01 | 0.22 | 0.06 | 95 | 1017.5 |
| 20260507115510 | 36 | 0 | 0.0 | 0.0 | 0.01 | 0.22 | 0.06 | 95 | 1017.5 |
| 20260507115010 | 36 | 0 | 0.0 | 0.0 | 0.01 | 0.22 | 0.06 | 95 | 1017.7 |
| 20260507114530 | 36 | 0 | 0.0 | 0.0 | 0.01 | 0.22 | 0.06 | 95 | 1017.6 |
| 20260507114010 | 36 | 0 | 0.0 | 0.0 | 0.01 | 0.22 | 0.06 | 95 | 1017.7 |
| 20260507113509 | 36 | 0 | 0.0 | 0.0 | 0.01 | 0.22 | 0.06 | 95 | 1017.6 |
| 20260507113034 | 36 | 0 | 0.0 | 0.0 | 0.01 | 0.22 | 0.06 | 95 | 1017.5 |
| 20260507112508 | 36 | 0 | 0.0 | 0.0 | 0.01 | 0.22 | 0.06 | 95 | 1017.6 |
| 20260507112017 | 36 | 0 | 0.0 | 0.0 | 0.00 | 0.21 | 0.05 | 95 | 1017.7 |
| 20260507111529 | 36 | 0 | 0.0 | 0.0 | 0.00 | 0.21 | 0.05 | 95 | 1017.7 |
| 20260507111011 | 36 | 0 | 0.0 | 0.0 | 0.00 | 0.21 | 0.05 | 95 | 1017.6 |
| 20260507110516 | 36 | 0 | 0.0 | 0.0 | 0.00 | 0.21 | 0.05 | 95 | 1017.5 |
| 20260507110031 | 37 | 0 | 0.0 | 0.0 | 0.00 | 0.21 | 0.05 | 95 | 1017.6 |
| 20260507105512 | 37 | 0 | 0.0 | 0.0 | 0.00 | 0.21 | 0.05 | 95 | 1017.7 |
| 20260507105007 | 37 | 0 | 0.0 | 0.0 | 0.00 | 0.21 | 0.05 | 95 | 1017.6 |
| 20260507104528 | 37 | 0 | 0.0 | 0.0 | 0.00 | 0.21 | 0.05 | 95 | 1017.6 |
| 20260507104008 | 37 | 0 | 0.0 | 0.0 | 0.00 | 0.21 | 0.05 | 95 | 1017.5 |
| 20260507103508 | 37 | 0 | 0.0 | 0.0 | 0.00 | 0.21 | 0.05 | 95 | 1017.4 |
| 20260507103027 | 37 | 0 | 0.0 | 0.0 | 0.00 | 0.21 | 0.05 | 95 | 1017.4 |
| 20260507102512 | 37 | 0 | 0.0 | 0.0 | 0.00 | 0.21 | 0.05 | 95 | 1017.4 |
| 20260507102011 | 37 | 0 | 0.0 | 0.0 | 0.01 | 0.21 | 0.05 | 95 | 1017.2 |
| 20260507101534 | 37 | 0 | 0.0 | 0.0 | 0.01 | 0.21 | 0.05 | 95 | 1017.2 |
| 20260507101009 | 37 | 0 | 0.0 | 1.0 | 0.01 | 0.21 | 0.05 | 95 | 1017.3 |
| 20260507100508 | 37 | 0 | 0.0 | 1.0 | 0.02 | 0.21 | 0.05 | 95 | 1017.3 |
| 20260507100034 | 38 | 0 | 0.0 | 1.0 | 0.02 | 0.21 | 0.05 | 95 | 1017.3 |
| 20260507095511 | 38 | 0 | 0.0 | 0.0 | 0.02 | 0.21 | 0.05 | 95 | 1017.2 |
| 20260507095013 | 38 | 0 | 0.0 | 0.0 | 0.03 | 0.21 | 0.05 | 95 | 1017.3 |
| 20260507094530 | 38 | 0 | 0.0 | 0.0 | 0.03 | 0.21 | 0.05 | 95 | 1017.2 |
| 20260507094010 | 38 | 0 | 0.0 | 0.0 | 0.03 | 0.21 | 0.05 | 95 | 1017.3 |
| 20260507093507 | 38 | 0 | 0.0 | 0.0 | 0.04 | 0.21 | 0.05 | 95 | 1017.3 |
| 20260507093037 | 38 | 0 | 0.0 | 0.0 | 0.04 | 0.21 | 0.05 | 94 | 1017.2 |
| 20260507092510 | 38 | 0 | 0.0 | 1.0 | 0.04 | 0.21 | 0.05 | 94 | 1017.2 |
| 20260507092010 | 38 | 0 | 0.0 | 1.0 | 0.03 | 0.20 | 0.04 | 94 | 1017.2 |
| 20260507091528 | 38 | 0 | 0.0 | 1.0 | 0.03 | 0.20 | 0.04 | 94 | 1017.2 |
| 20260507091009 | 38 | 0 | 0.0 | 0.0 | 0.04 | 0.20 | 0.04 | 94 | 1017.2 |
| 20260507090511 | 38 | 0 | 0.0 | 0.0 | 0.03 | 0.19 | 0.03 | 94 | 1017.3 |
| 20260507090032 | 38 | 0 | 0.0 | 0.0 | 0.03 | 0.19 | 0.03 | 94 | 1017.2 |
| 20260507085510 | 38 | 0 | 0.0 | 0.0 | 0.04 | 0.19 | 0.03 | 94 | 1017.0 |
| 20260507085010 | 38 | 0 | 0.0 | 0.0 | 0.04 | 0.18 | 0.02 | 94 | 1016.8 |
| 20260507084528 | 38 | 0 | 0.0 | 0.0 | 0.05 | 0.18 | 0.02 | 94 | 1016.8 |
| 20260507084013 | 38 | 0 | 0.0 | 0.0 | 0.05 | 0.18 | 0.02 | 94 | 1016.7 |
| 20260507083511 | 38 | 0 | 0.0 | 0.0 | 0.04 | 0.17 | 0.01 | 94 | 1016.7 |
| 20260507083037 | 38 | 0 | 0.0 | 0.0 | 0.04 | 0.17 | 0.01 | 94 | 1016.6 |
| 20260507082510 | 38 | 0 | 0.0 | 0.0 | 0.04 | 0.17 | 0.01 | 94 | 1016.5 |
| 20260507082009 | 38 | 135 | 0.0 | 1.0 | 0.05 | 0.17 | 0.01 | 94 | 1016.6 |
| 20260507081529 | 39 | 0 | 0.0 | 1.0 | 0.04 | 0.16 | 0.00 | 94 | 1016.5 |
| 20260507081010 | 39 | 0 | 0.0 | 1.0 | 0.04 | 0.16 | 0.00 | 94 | 1016.5 |
| 20260507080511 | 39 | 0 | 0.0 | 1.0 | 0.04 | 0.16 | 0.00 | 94 | 1016.4 |
| 20260507080030 | 39 | 0 | 0.0 | 1.0 | 0.04 | 0.16 | 0.00 | 94 | 1016.4 |
| 20260507075509 | 39 | 0 | 0.0 | 1.0 | 0.03 | 0.15 | 0.15 | 94 | 1016.4 |
| 20260507075011 | 39 | 259 | 0.0 | 1.0 | 0.02 | 0.14 | 0.14 | 94 | 1016.4 |
| 20260507074529 | 39 | 0 | 0.0 | 1.0 | 0.01 | 0.13 | 0.13 | 94 | 1016.4 |
| 20260507074009 | 39 | 0 | 0.0 | 1.0 | 0.01 | 0.13 | 0.13 | 94 | 1016.3 |
| 20260507073512 | 39 | 0 | 0.0 | 0.0 | 0.01 | 0.13 | 0.13 | 94 | 1016.2 |
| 20260507073030 | 39 | 0 | 0.0 | 0.0 | 0.01 | 0.13 | 0.13 | 94 | 1016.3 |
| 20260507072509 | 39 | 0 | 0.0 | 1.0 | 0.01 | 0.13 | 0.13 | 94 | 1016.2 |
| 20260507072012 | 39 | 0 | 0.0 | 1.0 | 0.00 | 0.12 | 0.12 | 94 | 1016.0 |
| 20260507071535 | 39 | 0 | 0.0 | 1.0 | 0.00 | 0.12 | 0.12 | 94 | 1016.0 |
| 20260507071017 | 39 | 0 | 0.0 | 1.0 | 0.00 | 0.12 | 0.12 | 94 | 1016.0 |
| 20260507070510 | 39 | 0 | 0.0 | 1.0 | 0.00 | 0.12 | 0.12 | 94 | 1016.0 |
| 20260507070031 | 40 | 243 | 0.0 | 1.0 | 0.00 | 0.12 | 0.12 | 94 | 1015.9 |
| 20260507065512 | 39 | 250 | 0.0 | 1.0 | 0.00 | 0.12 | 0.12 | 94 | 1015.9 |
| 20260507065010 | 40 | 159 | 0.0 | 0.0 | 0.00 | 0.12 | 0.12 | 94 | 1015.8 |
| 20260507064529 | 40 | 0 | 0.0 | 0.0 | 0.00 | 0.12 | 0.12 | 94 | 1015.7 |
| 20260507064007 | 40 | 0 | 0.0 | 0.0 | 0.01 | 0.12 | 0.12 | 94 | 1015.7 |
| 20260507063512 | 40 | 0 | 0.0 | 0.0 | 0.01 | 0.12 | 0.12 | 94 | 1015.7 |
| 20260507063032 | 40 | 0 | 0.0 | 0.0 | 0.01 | 0.12 | 0.12 | 94 | 1015.7 |
| 20260507062510 | 40 | 0 | 0.0 | 0.0 | 0.01 | 0.12 | 0.12 | 94 | 1015.7 |
| 20260507062012 | 40 | 0 | 0.0 | 0.0 | 0.02 | 0.12 | 0.12 | 93 | 1015.7 |
| 20260507061528 | 40 | 0 | 0.0 | 0.0 | 0.02 | 0.12 | 0.12 | 93 | 1015.6 |
| 20260507061010 | 40 | 0 | 0.0 | 0.0 | 0.02 | 0.12 | 0.12 | 93 | 1015.6 |
| 20260507060507 | 40 | 0 | 0.0 | 0.0 | 0.03 | 0.12 | 0.12 | 93 | 1015.5 |
| 20260507060030 | 40 | 0 | 0.0 | 0.0 | 0.03 | 0.12 | 0.12 | 93 | 1015.3 |
| 20260507055509 | 40 | 0 | 0.0 | 0.0 | 0.04 | 0.12 | 0.12 | 92 | 1015.3 |
| 20260507055009 | 40 | 0 | 0.0 | 0.0 | 0.04 | 0.12 | 0.12 | 92 | 1015.2 |
| 20260507054528 | 40 | 0 | 0.0 | 0.0 | 0.04 | 0.12 | 0.12 | 92 | 1015.1 |
| 20260507054012 | 40 | 0 | 0.0 | 0.0 | 0.03 | 0.11 | 0.11 | 91 | 1015.3 |
| 20260507053510 | 41 | 0 | 0.0 | 1.0 | 0.03 | 0.11 | 0.11 | 91 | 1015.3 |
| 20260507053028 | 41 | 159 | 0.0 | 1.0 | 0.03 | 0.11 | 0.11 | 91 | 1015.2 |
| 20260507052511 | 41 | 152 | 0.0 | 2.0 | 0.03 | 0.11 | 0.11 | 90 | 1015.3 |
| 20260507052010 | 41 | 0 | 0.0 | 2.0 | 0.02 | 0.10 | 0.10 | 90 | 1015.3 |
| 20260507051529 | 41 | 253 | 0.0 | 4.0 | 0.02 | 0.10 | 0.10 | 90 | 1015.2 |
| 20260507051010 | 42 | 267 | 1.0 | 6.0 | 0.02 | 0.10 | 0.10 | 89 | 1015.2 |
| 20260507050511 | 42 | 223 | 1.0 | 6.0 | 0.01 | 0.09 | 0.09 | 90 | 1015.2 |
| 20260507050029 | 42 | 269 | 0.0 | 1.0 | 0.02 | 0.09 | 0.09 | 91 | 1015.2 |
| 20260507045510 | 42 | 206 | 0.0 | 1.0 | 0.01 | 0.08 | 0.08 | 91 | 1015.1 |
| 20260507045009 | 42 | 0 | 0.0 | 1.0 | 0.01 | 0.08 | 0.08 | 92 | 1015.0 |
| 20260507044530 | 42 | 0 | 0.0 | 0.0 | 0.01 | 0.08 | 0.08 | 92 | 1015.0 |
| 20260507044009 | 42 | 0 | 0.0 | 0.0 | 0.01 | 0.08 | 0.08 | 91 | 1015.0 |
| 20260507043509 | 42 | 0 | 0.0 | 0.0 | 0.02 | 0.08 | 0.08 | 91 | 1014.9 |
| 20260507043035 | 42 | 0 | 0.0 | 0.0 | 0.02 | 0.08 | 0.08 | 91 | 1014.9 |
| 20260507042510 | 42 | 0 | 0.0 | 0.0 | 0.02 | 0.08 | 0.08 | 91 | 1014.8 |
| 20260507042012 | 42 | 0 | 0.0 | 0.0 | 0.02 | 0.08 | 0.08 | 91 | 1014.8 |
| 20260507041528 | 42 | 0 | 0.0 | 0.0 | 0.02 | 0.08 | 0.08 | 90 | 1014.7 |
| 20260507041010 | 42 | 0 | 0.0 | 1.0 | 0.02 | 0.08 | 0.08 | 90 | 1014.7 |
| 20260507040510 | 43 | 0 | 0.0 | 1.0 | 0.01 | 0.07 | 0.07 | 89 | 1014.7 |
| 20260507040029 | 43 | 0 | 0.0 | 1.0 | 0.02 | 0.07 | 0.07 | 88 | 1014.6 |
| 20260507035507 | 43 | 0 | 0.0 | 1.0 | 0.02 | 0.07 | 0.07 | 86 | 1014.5 |
| 20260507035011 | 43 | 0 | 0.0 | 1.0 | 0.02 | 0.07 | 0.07 | 84 | 1014.6 |
| 20260507034530 | 43 | 0 | 0.0 | 1.0 | 0.02 | 0.07 | 0.07 | 84 | 1014.5 |
| 20260507034012 | 43 | 0 | 0.0 | 1.0 | 0.02 | 0.07 | 0.07 | 84 | 1014.6 |
| 20260507033510 | 44 | 0 | 0.0 | 1.0 | 0.01 | 0.06 | 0.06 | 84 | 1014.4 |
| 20260507033029 | 44 | 157 | 0.0 | 1.0 | 0.01 | 0.06 | 0.06 | 83 | 1014.5 |
| 20260507032510 | 44 | 157 | 0.0 | 1.0 | 0.01 | 0.06 | 0.06 | 83 | 1014.5 |
| 20260507032012 | 44 | 0 | 0.0 | 3.0 | 0.01 | 0.06 | 0.06 | 82 | 1014.4 |
| 20260507031528 | 44 | 179 | 1.0 | 3.0 | 0.01 | 0.06 | 0.06 | 81 | 1014.4 |
| 20260507031008 | 44 | 248 | 0.0 | 2.0 | 0.01 | 0.06 | 0.06 | 82 | 1014.3 |
| 20260507030512 | 44 | 288 | 0.0 | 2.0 | 0.01 | 0.06 | 0.06 | 84 | 1014.3 |
| 20260507030032 | 44 | 0 | 0.0 | 2.0 | 0.00 | 0.05 | 0.05 | 88 | 1014.3 |
| 20260507025509 | 44 | 144 | 1.0 | 2.0 | 0.00 | 0.05 | 0.05 | 86 | 1014.2 |
| 20260507025009 | 44 | 0 | 0.0 | 1.0 | 0.00 | 0.05 | 0.05 | 86 | 1014.3 |
| 20260507024528 | 44 | 0 | 0.0 | 1.0 | 0.00 | 0.05 | 0.05 | 86 | 1014.2 |
| 20260507024008 | 44 | 0 | 0.0 | 1.0 | 0.00 | 0.05 | 0.05 | 85 | 1014.2 |
| 20260507023512 | 44 | 0 | 0.0 | 0.0 | 0.00 | 0.05 | 0.05 | 86 | 1014.1 |
| 20260507023030 | 44 | 0 | 0.0 | 0.0 | 0.00 | 0.05 | 0.05 | 85 | 1014.1 |
| 20260507022509 | 44 | 0 | 0.0 | 0.0 | 0.00 | 0.05 | 0.05 | 84 | 1014.0 |
| 20260507022009 | 45 | 0 | 0.0 | 0.0 | 0.01 | 0.05 | 0.05 | 85 | 1014.0 |
| 20260507021530 | 45 | 0 | 0.0 | 0.0 | 0.01 | 0.05 | 0.05 | 83 | 1013.8 |
| 20260507021012 | 45 | 0 | 0.0 | 0.0 | 0.01 | 0.05 | 0.05 | 83 | 1013.9 |
| 20260507020510 | 45 | 0 | 0.0 | 1.0 | 0.01 | 0.05 | 0.05 | 81 | 1014.0 |
| 20260507020033 | 45 | 0 | 0.0 | 1.0 | 0.01 | 0.05 | 0.05 | 82 | 1013.9 |
| 20260507015509 | 45 | 0 | 0.0 | 1.0 | 0.01 | 0.05 | 0.05 | 82 | 1013.9 |
| 20260507015013 | 45 | 0 | 0.0 | 1.0 | 0.01 | 0.05 | 0.05 | 82 | 1013.9 |
| 20260507014528 | 45 | 0 | 0.0 | 4.0 | 0.01 | 0.05 | 0.05 | 82 | 1013.8 |
| 20260507014009 | 45 | 278 | 0.0 | 4.0 | 0.01 | 0.05 | 0.05 | 80 | 1013.8 |
| 20260507013506 | 45 | 244 | 1.0 | 3.0 | 0.01 | 0.05 | 0.05 | 78 | 1013.8 |
| 20260507013036 | 45 | 238 | 0.0 | 2.0 | 0.01 | 0.05 | 0.05 | 80 | 1013.8 |
| 20260507012513 | 45 | 278 | 1.0 | 3.0 | 0.01 | 0.05 | 0.05 | 80 | 1013.7 |
| 20260507012014 | 45 | 291 | 1.0 | 3.0 | 0.00 | 0.04 | 0.04 | 79 | 1013.8 |
| 20260507011536 | 46 | 287 | 1.0 | 2.0 | 0.00 | 0.04 | 0.04 | 79 | 1013.8 |
| 20260507011009 | 46 | 0 | 1.0 | 4.0 | 0.00 | 0.04 | 0.04 | 79 | 1013.7 |
| 20260507010509 | 46 | 277 | 1.0 | 6.0 | 0.00 | 0.04 | 0.04 | 77 | 1013.7 |
| 20260507010029 | 46 | 260 | 2.0 | 6.0 | 0.00 | 0.04 | 0.04 | 76 | 1013.6 |
| 20260507005515 | 46 | 246 | 1.0 | 6.0 | 0.00 | 0.04 | 0.04 | 73 | 1013.6 |
| 20260507005009 | 46 | 215 | 2.0 | 6.0 | 0.00 | 0.04 | 0.04 | 72 | 1013.5 |
| 20260507004528 | 46 | 265 | 1.0 | 5.0 | 0.00 | 0.04 | 0.04 | 73 | 1013.4 |